DW2004 Weather Reports


time (UTC)temp
C
wind
direction
speed
KPH
gust
KPH
rain 1hr
cm
rain 24hr
cm
rain mn
cm
humidity
%
barometer
mb
20260505015002 25 189 6.4 20.9 0.00 0.00 0.00 65 1005.6
20260505014506 25 130 1.6 17.7 0.00 0.00 0.00 64 1005.6
20260505014002 25 216 6.4 19.3 0.00 0.00 0.00 64 1005.6
20260505013503 25 190 4.8 24.1 0.00 0.00 0.00 64 1005.6
20260505013006 25 244 8.0 24.1 0.00 0.00 0.00 64 1005.6
20260505012502 25 193 8.0 25.7 0.00 0.00 0.00 64 1005.5
20260505011506 25 184 8.0 25.7 0.00 0.00 0.00 63 1005.6
20260505011003 25 196 9.7 25.7 0.00 0.00 0.00 63 1005.6
20260505010502 25 214 4.8 25.7 0.00 0.00 0.00 62 1005.6
20260505005503 25 198 9.7 22.5 0.00 0.00 0.00 62 1005.6
20260505005004 25 171 6.4 32.2 0.00 0.00 0.00 62 1005.6
20260505004505 25 212 11.3 32.2 0.00 0.00 0.00 62 1005.5
20260505004002 25 210 4.8 19.3 0.00 0.00 0.00 62 1005.6
20260505003508 25 212 6.4 19.3 0.00 0.00 0.00 62 1005.6
20260505003008 26 222 4.8 27.4 0.00 0.00 0.00 62 1005.6
20260505002502 26 254 9.7 27.4 0.00 0.00 0.00 61 1005.7
20260505002003 26 196 9.7 27.4 0.00 0.00 0.00 61 1005.7
20260505001506 26 202 6.4 30.6 0.00 0.00 0.00 61 1005.7
20260505001004 26 171 9.7 29.0 0.00 0.00 0.00 60 1005.9
20260505000503 26 286 8.0 25.7 0.00 0.00 0.00 60 1005.9
20260505000007 26 176 9.7 25.7 0.00 0.00 0.00 60 1005.8
20260504235502 26 194 11.3 24.1 0.00 0.00 0.00 60 1005.8
20260504235001 26 170 11.3 24.1 0.00 0.00 0.00 60 1005.7
20260504234001 26 208 11.3 29.0 0.00 0.00 0.00 59 1005.8
20260504233502 26 175 11.3 29.0 0.00 0.00 0.00 59 1005.9
20260504232503 26 199 8.0 30.6 0.00 0.00 0.00 59 1005.9
20260504232001 26 159 9.7 29.0 0.00 0.00 0.00 59 1005.9
20260504231505 26 159 6.4 24.1 0.00 0.00 0.00 59 1005.8
20260504231003 27 232 4.8 29.0 0.00 0.00 0.00 58 1005.9
20260504230501 27 165 6.4 37.0 0.00 0.00 0.00 58 1006.0
20260504230011 27 234 8.0 24.1 0.00 0.00 0.00 57 1006.2
20260504225502 27 202 12.9 24.1 0.00 0.00 0.00 57 1006.2
20260504225002 27 230 11.3 24.1 0.00 0.00 0.00 57 1006.2
20260504224002 27 66 6.4 22.5 0.00 0.00 0.00 57 1006.2
20260504223005 27 233 3.2 25.7 0.00 0.00 0.00 57 1006.3
20260504222001 27 196 11.3 24.1 0.00 0.00 0.00 56 1006.3
20260504221506 27 240 6.4 33.8 0.00 0.00 0.00 57 1006.3
20260504221001 27 144 8.0 33.8 0.00 0.00 0.00 56 1006.2
20260504220501 27 148 6.4 24.1 0.00 0.00 0.00 56 1006.3
20260504220013 27 189 8.0 29.0 0.00 0.00 0.00 57 1006.3
20260504215501 27 209 8.0 29.0 0.00 0.00 0.00 57 1006.4
20260504215001 27 140 9.7 29.0 0.00 0.00 0.00 56 1006.6
20260504214511 27 168 9.7 29.0 0.00 0.00 0.00 55 1006.7
20260504214001 27 175 11.3 24.1 0.00 0.00 0.00 55 1006.7
20260504213502 27 161 6.4 22.5 0.00 0.00 0.00 56 1006.9
20260504213008 27 176 6.4 17.7 0.00 0.00 0.00 57 1007.2
20260504211519 27 173 11.3 27.4 0.00 0.00 0.00 56 1007.0
20260504211002 27 171 9.7 25.7 0.00 0.00 0.00 56 1007.5
20260504210502 27 240 8.0 25.7 0.00 0.00 0.00 56 1007.5
20260504210007 27 238 8.0 24.1 0.00 0.00 0.00 56 1007.6
20260504205501 27 206 8.0 22.5 0.00 0.00 0.00 56 1007.7
20260504205001 27 209 8.0 30.6 0.00 0.00 0.00 56 1007.7
20260504204505 27 229 9.7 30.6 0.00 0.00 0.00 54 1007.8
20260504204001 27 246 8.0 24.1 0.00 0.00 0.00 56 1008.0
20260504203507 27 205 9.7 29.0 0.00 0.00 0.00 56 1008.1
20260504203007 27 215 9.7 29.0 0.00 0.00 0.00 54 1008.2
20260504202501 27 261 9.7 27.4 0.00 0.00 0.00 55 1008.1
20260504202005 27 171 6.4 24.1 0.00 0.00 0.00 55 1008.2
20260504201520 27 175 4.8 29.0 0.00 0.00 0.00 55 1008.4
20260504201001 27 174 6.4 25.7 0.00 0.00 0.00 55 1008.6
20260504200502 27 257 8.0 25.7 0.00 0.00 0.00 55 1008.8
20260504195006 27 236 11.3 20.9 0.00 0.00 0.00 54 1009.1
20260504194000 27 234 8.0 27.4 0.00 0.00 0.00 54 1009.0
20260504193500 27 190 6.4 29.0 0.00 0.00 0.00 56 1009.3
20260504193004 27 196 9.7 29.0 0.00 0.00 0.00 54 1009.3
20260504192001 26 170 9.7 27.4 0.00 0.00 0.00 55 1009.4
20260504191505 26 181 12.9 27.4 0.00 0.00 0.00 54 1009.5
20260504190005 26 195 4.8 29.0 0.00 0.00 0.00 57 1009.9
20260504185505 26 233 11.3 29.0 0.00 0.00 0.00 55 1010.0
20260504185002 26 209 11.3 29.0 0.00 0.00 0.00 55 1010.0
20260504184512 26 138 4.8 25.7 0.00 0.00 0.00 56 1010.0
20260504184001 26 219 9.7 27.4 0.00 0.00 0.00 55 1010.1
20260504183504 26 194 12.9 27.4 0.00 0.00 0.00 55 1010.1
20260504183005 26 201 4.8 27.4 0.00 0.00 0.00 57 1010.3
20260504182504 25 196 9.7 27.4 0.00 0.00 0.00 55 1010.4
20260504181002 25 226 8.0 22.5 0.00 0.00 0.00 56 1010.6
20260504175501 25 227 4.8 30.6 0.00 0.00 0.00 55 1010.8
20260504175002 25 119 9.7 30.6 0.00 0.00 0.00 55 1010.6
20260504174509 25 197 12.9 25.7 0.00 0.00 0.00 56 1010.6
20260504174002 25 164 8.0 35.4 0.00 0.00 0.00 57 1010.9
20260504173500 25 244 11.3 35.4 0.00 0.00 0.00 56 1011.1
20260504173004 25 182 12.9 24.1 0.00 0.00 0.00 56 1011.2
20260504172500 25 225 8.0 29.0 0.00 0.00 0.00 57 1011.3
20260504172001 24 217 12.9 29.0 0.00 0.00 0.00 56 1011.3
20260504171506 24 219 9.7 25.7 0.00 0.00 0.00 56 1011.4
20260504171000 24 186 12.9 25.7 0.00 0.00 0.00 56 1011.4
20260504170503 24 210 9.7 30.6 0.00 0.00 0.00 56 1011.4
20260504151000 21 226 8.0 33.8 0.00 0.00 0.00 65 1012.7
20260504150501 21 161 9.7 33.8 0.00 0.00 0.00 65 1012.9
20260504140500 19 142 9.7 29.0 0.00 0.00 0.00 69 1013.0
20260504130500 18 193 3.2 16.1 0.00 0.00 0.00 72 1013.3
20260504110459 17 190 1.6 9.7 0.00 0.00 0.00 72 1012.8
20260504100500 18 220 1.6 14.5 0.00 0.00 0.00 66 1013.2
20260504081958 19 163 3.2 16.1 0.00 0.00 0.00 58 1013.5
20260504081505 19 153 4.8 16.1 0.00 0.00 0.00 58 1013.5
20260504080958 19 210 3.2 14.5 0.00 0.00 0.00 56 1013.7
20260504080458 19 247 4.8 14.5 0.00 0.00 0.00 56 1013.8
20260504050504 20 209 0.0 6.4 0.00 0.00 0.00 53 1015.7
20260504050012 20 209 1.6 6.4 0.00 0.00 0.00 53 1015.7
20260504045503 20 209 0.0 4.8 0.00 0.00 0.00 53 1015.7
20260504045003 20 209 0.0 4.8 0.00 0.00 0.00 52 1015.8
20260504044507 20 209 0.0 3.2 0.00 0.00 0.00 52 1015.8
20260504043503 21 209 0.0 6.4 0.00 0.00 0.00 51 1015.9
20260504042503 21 208 0.0 11.3 0.00 0.00 0.00 51 1016.0
20260504042003 21 208 1.6 12.9 0.00 0.00 0.00 51 1015.9
20260504041507 21 198 1.6 6.4 0.00 0.00 0.00 51 1016.0
20260504041004 21 198 1.6 8.0 0.00 0.00 0.00 50 1016.0
20260504040008 21 194 1.6 11.3 0.00 0.00 0.00 50 1015.9
20260504035504 21 161 1.6 11.3 0.00 0.00 0.00 50 1015.9
20260504035003 21 192 1.6 9.7 0.00 0.00 0.00 50 1015.9
20260504034506 21 192 1.6 9.7 0.00 0.00 0.00 49 1015.9
20260504034003 21 204 0.0 6.4 0.00 0.00 0.00 49 1015.9
20260504033503 21 204 1.6 6.4 0.00 0.00 0.00 49 1015.9
20260504033007 21 203 0.0 8.0 0.00 0.00 0.00 48 1015.8
20260504032002 22 198 1.6 8.0 0.00 0.00 0.00 47 1015.9
20260504031521 22 187 1.6 9.7 0.00 0.00 0.00 46 1015.8
20260504031003 22 186 0.0 9.7 0.00 0.00 0.00 45 1015.8
20260504030502 22 177 3.2 8.0 0.00 0.00 0.00 45 1015.8
20260504030010 22 205 1.6 8.0 0.00 0.00 0.00 44 1015.7
20260504025503 22 196 1.6 9.7 0.00 0.00 0.00 43 1015.7
20260504025003 22 195 1.6 9.7 0.00 0.00 0.00 43 1015.5
20260504024002 22 176 1.6 16.1 0.00 0.00 0.00 41 1015.6
20260504023503 23 184 3.2 16.1 0.00 0.00 0.00 41 1015.6
20260504023008 23 175 1.6 8.0 0.00 0.00 0.00 41 1015.6
20260504022504 23 171 1.6 11.3 0.00 0.00 0.00 40 1015.7
20260504022003 23 232 1.6 16.1 0.00 0.00 0.00 40 1015.6
20260504021506 23 187 4.8 14.5 0.00 0.00 0.00 40 1015.6
20260504021003 23 207 1.6 14.5 0.00 0.00 0.00 40 1015.5
20260504020503 23 186 1.6 14.5 0.00 0.00 0.00 40 1015.6
20260504020010 23 210 1.6 17.7 0.00 0.00 0.00 40 1015.6